{"data":{"norad_id":68869,"intl_designator":"2026-095F","name":"KUIPER-00433","alt_names":[],"object_type":"PAYLOAD","status":"ACTIVE","operator":null,"country":"US","launch_date":"2026-04-28","launch_site_code":"AFETR","launch_vehicle":null,"mission":null,"orbit_class":"UNKNOWN","rcs_meters":null,"size_class":null,"mass_kg":null,"dimensions":null,"purposes":[],"wikipedia_slug":null,"has_3d_model":false,"image_url":null,"decayed_at":null,"tle_current":{"epoch":"2026-09-19T04:45:07.546464Z","epoch_age_seconds":127960,"freshness":"FRESH","line1":"1 68869U 26095F   26262.19800401 -.00000585  00000+0 -47672-4 0  9999","line2":"2 68869  51.8977 197.4432 0000933  49.7388 310.3656 14.79929453 21505","mean_motion":14.79929453,"eccentricity":9.33e-5,"inclination_deg":51.8977,"raan_deg":197.4432,"arg_perigee_deg":49.7388,"mean_anomaly_deg":310.3656,"bstar":-4.7672e-5,"rev_number":2150,"period_min":97.301935378132,"perigee_km":628.89300929643,"apogee_km":630.20064309839,"semimajor_km":7007.6838261974,"source":"CELESTRAK","updated_at":"2026-09-20T09:00:24.532633Z"}}}